ECMWFNIL_925_temp_057.txt.gz
Temp
14 14 14 14 14 14 14 15 15 15 15 15 15 16 15 15 15 15 15 15 15 15 15 15 15 15 15 16 15 14 15 15 15 15 15 15 15 15 15 15 15 15
14 14 14 14 14 14 14 14 15 15 15 15 15 15 15 15 15 15 15 15 15 15 15 15 15 15 15 15 15 15 15 15 15 15 15 15 15 15 15 14 14 14
14 14 14 14 14 14 14 14 15 15 15 15 15 15 15 15 15 15 14 14 15 15 15 15 15 15 15 15 15 15 15 15 15 15 15 15 15 15 15 14 14 14
14 14 14 14 14 14 14 14 14 15 14 15 15 15 15 15 15 14 14 14 15 15 15 15 15 15 15 15 15 15 15 15 15 15 15 15 15 15 15 14 14 14
13 14 14 14 14 14 14 14 14 14 14 14 15 15 15 15 14 14 14 14 15 15 15 15 15 15 15 15 15 15 15 15 15 15 14 14 14 15 15 15 14 14
13 13 14 14 14 14 14 14 14 14 14 14 15 14 14 14 14 14 15 15 15 15 15 15 15 15 15 15 15 14 14 15 15 14 14 14 14 14 15 15 14 14
13 13 14 14 14 14 14 14 14 14 14 14 14 14 14 14 14 14 15 15 15 15 15 15 15 15 15 15 15 14 14 14 15 14 14 14 14 14 14 14 15 15
12 13 13 14 14 14 14 14 14 14 14 14 14 14 14 14 14 14 15 15 15 15 15 15 15 16 16 15 15 14 14 14 14 14 14 14 14 14 14 14 15 15
11 12 13 13 14 14 13 13 14 14 14 14 14 14 14 14 14 15 15 15 15 15 15 15 15 16 16 16 15 14 14 14 14 14 14 14 14 14 14 14 14 14
10 11 12 13 13 13 13 13 14 14 14 14 14 14 14 14 14 15 15 15 15 15 15 15 15 15 16 16 15 15 14 14 14 14 14 14 14 14 14 14 14 14
9 10 11 12 13 13 13 13 13 13 13 13 14 14 14 14 14 15 15 15 15 15 15 15 15 15 16 16 16 15 14 14 14 14 14 14 14 14 14 14 14 14
9 9 10 11 12 13 13 13 13 13 13 13 14 14 14 14 14 14 15 15 15 15 15 15 16 16 16 16 16 16 15 14 14 14 14 14 14 14 14 14 14 14
8 8 9 10 11 12 13 13 13 13 13 13 14 14 14 14 14 14 14 15 15 16 16 15 16 16 16 16 16 16 15 15 14 14 14 14 14 14 14 14 14 14
7 8 8 9 11 12 12 13 13 13 13 13 13 14 14 14 14 14 14 15 15 16 16 15 15 16 16 16 16 16 16 15 14 14 14 14 14 14 14 14 14 14
7 7 7 8 10 11 12 12 13 13 13 13 13 13 14 13 13 14 14 14 15 15 16 15 15 16 16 16 16 16 16 15 15 14 14 14 14 14 14 14 14 14
6 7 7 7 8 10 11 12 12 13 13 13 13 13 13 13 13 13 14 14 15 16 16 15 16 17 17 17 16 16 16 15 14 14 14 14 14 14 14 14 14 14
6 6 7 7 7 9 10 11 12 12 13 13 13 13 13 13 13 13 14 14 15 16 16 16 16 17 17 17 16 17 16 15 14 14 14 14 14 14 13 14 14 14
6 6 6 6 6 7 8 9 10 11 12 12 12 13 13 13 13 13 13 14 15 15 15 15 16 16 17 17 17 17 16 16 15 14 14 14 14 14 14 14 14 14
5 6 6 6 6 6 7 8 9 10 10 11 11 12 12 12 13 13 13 14 14 15 15 15 15 16 16 17 17 17 17 16 15 15 14 14 14 14 14 14 14 13
5 5 5 5 5 5 6 7 8 8 8 9 9 10 10 10 11 11 12 13 13 14 14 14 14 15 16 17 17 17 17 16 16 16 15 14 14 14 14 14 14 14
5 5 5 5 5 5 5 5 6 7 7 8 8 8 8 8 9 9 10 11 11 12 13 14 14 14 15 16 17 17 16 16 16 16 15 15 15 15 15 15 15 15
5 5 5 5 5 5 5 5 5 5 6 7 7 7 7 7 7 8 8 9 10 10 11 12 13 14 14 15 16 16 16 16 16 16 15 15 15 15 15 15 15 15
5 5 5 5 5 5 5 5 5 5 5 6 6 7 7 7 6 6 6 7 8 8 9 10 11 13 14 14 15 16 16 16 16 15 14 14 14 14 14 14 14 14
5 5 5 5 5 5 5 4 4 4 4 5 6 6 6 6 6 6 6 6 6 6 7 8 9 10 12 13 14 15 16 16 16 14 13 13 12 12 13 13 13 13
5 5 5 5 5 5 5 5 4 4 4 4 5 5 5 5 6 6 6 6 5 5 5 6 7 7 9 11 12 12 14 15 15 14 13 12 11 11 11 11 12 12
5 5 5 5 5 5 5 5 5 4 4 4 4 4 5 5 5 5 5 5 5 5 5 5 5 5 7 9 10 11 12 13 14 13 12 11 10 10 10 9 10 10

ECMWFNIL_925_temp_060.txt.gz
Temp
15 16 16 16 16 16 16 16 16 16 17 16 17 17 17 17 17 16 16 17 16 16 16 16 16 16 16 16 16 15 15 15 16 16 16 15 15 16 16 15 16 16
14 15 15 16 16 16 16 15 16 16 16 16 16 16 17 17 16 16 16 17 16 16 16 16 16 16 16 15 15 15 15 15 16 16 16 16 16 16 16 16 16 16
13 14 15 15 16 16 16 16 16 16 15 16 16 16 16 16 16 16 16 17 16 16 16 16 16 16 16 15 15 16 15 16 16 16 16 16 16 16 16 16 16 15
12 13 14 14 15 16 16 16 16 16 16 16 16 16 16 16 16 16 16 17 16 16 16 16 16 16 16 15 16 16 15 16 16 16 16 16 16 16 16 16 16 16
11 12 13 14 15 15 15 16 16 16 16 15 15 15 16 16 16 16 16 16 16 16 16 16 16 16 16 16 16 15 16 16 16 16 16 16 16 16 16 16 16 16
11 11 12 13 14 15 15 16 16 16 15 15 15 15 16 16 16 16 16 16 16 16 16 16 16 16 16 16 16 16 16 16 16 16 16 16 16 16 16 16 16 16
10 10 11 12 13 14 15 15 16 15 15 15 15 15 15 16 16 16 16 16 15 16 16 16 16 16 16 16 16 16 16 16 16 16 16 16 16 16 16 16 16 17
10 10 10 11 12 13 14 15 15 15 15 15 15 15 15 15 15 16 16 16 15 15 16 16 16 16 16 16 16 16 16 16 16 16 16 16 16 16 16 16 16 17
10 10 10 10 11 12 13 14 14 15 15 15 15 15 15 15 15 15 15 15 16 15 15 16 16 17 16 16 16 16 16 16 16 16 16 16 16 16 16 16 16 17
10 9 9 9 10 11 12 13 14 14 14 14 14 14 14 14 15 15 15 16 16 16 16 16 17 17 16 16 16 16 16 16 16 16 16 16 16 16 16 16 16 16
10 9 9 9 9 10 11 12 14 14 14 14 14 14 14 14 14 15 15 16 15 15 15 16 17 17 16 16 16 16 16 16 16 16 16 16 16 16 16 17 16 16
10 9 9 9 9 9 10 11 13 14 14 14 14 14 14 14 14 15 15 15 15 15 15 16 17 17 16 16 16 16 16 16 16 16 16 16 16 16 16 16 17 16
10 9 9 9 9 9 9 11 12 13 13 14 13 13 14 14 14 15 15 15 16 16 16 17 17 17 17 16 16 16 16 16 16 16 16 16 16 17 17 16 17 17
10 9 9 9 8 8 9 10 11 12 13 13 13 13 14 14 14 15 15 15 16 16 16 17 16 17 17 17 17 17 16 16 16 16 16 16 16 16 16 16 16 16
10 10 10 9 9 8 8 8 10 11 12 13 13 13 14 14 14 15 14 15 16 16 16 16 15 16 17 17 17 17 16 16 16 16 16 16 16 16 16 16 16 16
10 10 10 10 9 8 8 8 8 10 11 12 12 13 13 13 14 14 14 15 16 17 16 16 15 16 17 17 17 17 17 17 17 16 16 16 16 16 16 16 16 15
10 10 10 10 9 9 8 8 8 8 9 10 11 12 12 12 13 14 14 15 16 16 16 16 16 16 16 16 16 17 17 17 17 16 16 16 16 16 16 16 16 16
10 10 10 10 9 9 8 8 7 7 7 8 9 10 11 11 12 12 13 14 14 15 15 15 15 15 15 15 16 16 16 17 17 17 17 16 16 16 16 16 16 16
10 10 10 9 9 9 8 8 7 7 6 7 7 8 9 10 10 11 11 12 13 13 14 13 14 14 14 14 15 15 16 16 17 17 17 17 17 17 17 17 16 16
9 9 9 9 9 9 8 8 7 6 6 6 6 6 7 8 9 9 10 10 11 11 12 12 12 13 13 14 14 15 15 15 16 17 17 17 17 17 17 17 16 16
9 9 9 9 9 9 8 8 7 6 6 6 6 6 6 6 7 8 8 9 9 10 10 10 10 12 12 13 14 14 14 14 15 16 17 17 17 17 17 17 16 16
9 9 9 9 9 9 8 8 7 7 6 5 5 5 5 5 6 6 6 7 8 8 9 9 9 10 11 12 13 14 14 14 14 16 17 17 17 17 17 17 17 17
8 8 8 8 8 8 8 8 8 7 7 6 6 5 5 5 5 5 5 5 6 6 7 8 8 9 10 11 12 13 13 14 14 15 17 17 17 16 16 16 16 16
8 8 8 8 8 8 8 8 8 7 7 7 6 6 6 5 5 4 4 4 4 5 5 6 7 8 9 10 10 11 12 12 13 15 16 16 15 15 15 15 15 15
8 8 8 8 8 8 7 7 7 7 7 7 7 7 6 6 5 5 4 4 4 4 4 5 5 6 8 8 9 10 10 11 12 15 15 15 14 14 14 13 12 13
8 8 8 8 8 7 7 7 7 7 7 7 7 7 7 7 6 6 5 4 4 4 4 4 4 5 6 7 8 9 9 9 10 12 13 13 13 13 13 12 11 11

ECMWFNIL_925_temp_063.txt.gz
Temp
15 15 15 16 16 17 17 17 17 17 17 18 18 18 18 18 18 18 18 18 18 18 18 17 18 17 17 17 17 17 17 17 16 16 16 16 16 16 16 16 16 16
14 14 14 15 16 16 16 17 17 17 17 17 17 17 18 18 17 17 17 17 17 17 17 17 17 17 17 17 17 17 17 17 17 17 17 17 17 16 16 17 16 16
13 14 14 14 15 15 16 16 17 17 17 17 17 17 17 17 17 17 17 16 17 16 17 17 17 17 17 17 17 17 17 17 17 17 17 17 16 16 16 16 16 16
13 13 14 14 14 14 15 16 16 17 17 17 17 17 17 16 16 16 16 16 16 16 16 16 16 17 17 17 17 17 17 17 17 17 17 17 16 16 17 16 16 16
13 13 13 13 13 13 14 15 16 17 17 17 17 16 17 16 16 16 16 16 16 16 16 16 16 16 16 16 17 16 16 17 17 17 17 17 17 16 16 16 16 16
12 12 12 12 12 12 13 14 16 16 17 17 17 17 16 16 16 16 16 16 16 16 16 15 16 16 16 16 16 16 16 17 17 17 17 17 17 17 16 16 16 17
12 12 12 12 12 12 12 14 15 15 16 17 17 17 16 16 16 16 15 15 15 16 16 15 16 16 16 16 16 16 16 17 17 18 17 17 17 17 17 17 17 17
12 12 12 12 11 11 12 12 13 14 15 16 16 16 16 16 15 15 15 15 15 16 16 16 16 16 15 15 16 16 16 16 17 18 18 18 17 17 17 17 17 18
12 12 11 11 11 11 11 11 11 12 14 15 16 16 16 15 15 15 15 15 15 15 15 16 15 15 15 15 16 16 16 17 18 18 18 18 18 18 18 18 17 17
12 12 11 11 11 11 10 10 11 11 12 13 15 15 15 15 15 15 15 15 15 15 15 15 15 15 15 15 16 16 16 17 17 17 18 18 18 18 18 18 17 17
12 12 11 11 11 11 10 10 10 10 11 12 14 15 15 15 14 14 14 14 14 15 15 15 15 15 15 15 16 16 16 16 17 17 18 18 18 18 17 17 18 17
12 12 12 12 11 11 10 10 9 10 10 11 12 13 14 14 14 14 14 14 14 15 15 15 15 15 15 15 15 16 16 16 16 17 17 18 18 18 18 18 17 17
13 12 12 12 11 11 11 10 9 9 9 10 11 12 13 13 13 13 14 14 15 15 15 15 15 15 15 15 15 15 16 16 15 15 16 18 18 18 18 18 17 17
13 12 12 12 11 11 11 10 9 9 9 9 10 11 11 11 12 12 13 14 14 15 15 15 15 15 15 15 15 15 16 16 15 15 17 18 18 18 18 18 17 17
13 12 12 12 12 11 11 10 10 9 8 8 8 9 9 11 12 11 12 13 14 14 14 14 14 14 14 14 14 15 15 15 15 16 18 18 18 18 18 17 17 18
12 12 12 12 12 11 11 10 10 9 8 7 7 7 8 9 10 11 11 12 13 13 14 14 14 14 14 14 14 15 16 16 15 16 17 17 18 18 18 18 18 18
12 12 12 12 12 11 11 10 10 9 8 7 7 7 7 7 8 9 9 10 11 12 13 13 13 13 13 14 14 14 15 16 16 15 16 17 18 18 18 18 18 18
11 11 11 11 11 11 11 10 10 9 8 8 7 7 7 7 7 7 7 8 9 10 11 11 12 12 12 13 13 13 13 15 16 15 15 16 17 17 18 18 18 18
10 10 10 10 10 10 10 10 10 9 9 8 8 7 6 6 6 6 6 6 7 8 9 9 9 10 11 12 12 13 13 14 15 15 15 16 16 16 18 18 18 18
10 10 10 10 10 10 10 10 9 9 9 8 8 8 7 6 6 6 6 6 6 6 7 7 8 8 9 10 11 12 13 14 14 15 15 15 16 16 16 18 18 18
11 10 10 10 10 9 9 9 9 9 9 8 9 8 8 7 6 5 5 5 5 5 5 5 6 6 8 9 10 11 12 13 14 14 14 15 16 16 15 16 16 17
11 11 10 10 9 9 9 9 9 9 9 9 9 9 8 8 7 6 5 5 5 4 4 4 5 5 7 8 9 11 12 12 13 13 14 15 16 16 16 15 15 16
11 11 10 10 10 9 9 9 9 9 9 8 9 9 9 8 8 8 6 5 4 4 4 4 4 4 5 7 8 9 10 11 11 12 14 15 16 16 16 15 14 15
10 10 10 10 10 9 9 9 8 8 8 8 8 8 8 8 8 8 7 6 5 4 4 4 3 3 4 6 7 8 9 10 10 11 13 14 15 16 16 14 14 15
10 10 10 10 10 10 10 9 9 8 8 8 8 8 8 8 8 8 8 7 6 5 4 4 3 3 3 5 6 7 8 9 9 9 11 13 14 15 15 14 13 14
10 9 10 10 10 10 10 10 10 9 9 9 8 8 8 7 7 7 7 7 7 6 5 4 3 3 2 4 5 6 7 8 8 8 9 11 12 13 13 12 11 12

ECMWFNIL_925_temp_069.txt.gz
Temp
12 12 12 12 12 12 13 13 13 13 13 13 14 14 15 15 15 16 16 16 16 16 16 16 16 16 16 16 16 16 16 15 15 15 15 15 15 16 15 15 15 15
12 12 12 12 12 12 12 12 12 12 12 13 13 13 14 14 15 15 15 15 16 16 16 16 16 16 15 15 15 15 15 15 15 15 15 15 15 15 15 15 15 15
12 12 12 12 12 12 12 12 12 11 12 12 13 13 13 13 14 14 15 15 15 15 15 15 15 15 15 15 15 15 15 15 15 15 14 14 15 15 15 15 15 15
12 12 12 12 11 11 11 11 11 11 11 11 12 12 12 13 13 13 14 14 14 14 14 14 14 14 15 15 15 15 15 15 15 15 14 14 14 14 15 15 15 15
12 12 12 12 11 11 11 11 11 10 10 10 11 11 12 12 12 12 13 13 14 14 14 13 13 14 14 14 14 14 14 14 14 14 14 14 14 14 14 15 15 15
12 12 12 11 11 11 11 11 10 10 10 9 10 10 10 11 11 11 11 12 12 13 13 13 13 14 14 14 14 14 14 14 14 14 14 14 14 14 14 14 14 14
12 12 12 11 11 11 11 10 10 9 9 9 9 9 9 10 10 10 10 10 11 11 11 12 12 13 13 13 14 14 14 14 14 14 14 14 14 14 14 14 14 14
12 12 11 11 11 11 10 10 9 9 8 8 8 8 9 9 9 9 9 9 9 9 10 10 11 11 12 12 13 13 14 14 14 14 14 14 14 14 14 14 14 14
12 11 11 11 10 10 10 10 9 9 8 8 8 8 8 8 8 8 8 9 9 8 9 9 10 10 11 11 12 12 13 14 14 14 14 14 14 14 14 14 14 14
11 11 11 10 10 10 10 9 9 9 8 8 8 7 7 7 7 7 7 8 8 7 7 8 9 9 10 10 10 11 12 13 13 13 14 14 14 14 14 14 14 14
10 10 10 10 10 10 9 9 9 9 8 8 8 7 7 7 7 6 6 7 7 7 7 8 8 8 9 9 10 10 11 12 12 13 13 13 14 14 14 14 14 14
10 10 10 10 9 9 9 9 9 9 9 8 8 8 7 7 6 6 6 6 6 6 6 6 7 7 8 8 9 9 10 11 12 12 13 13 14 14 14 14 14 14
10 10 9 9 9 9 9 9 9 9 9 8 8 8 7 7 6 6 6 5 5 5 5 5 6 7 7 6 7 8 9 10 11 12 12 13 13 14 14 14 14 14
10 9 9 9 9 9 9 9 9 9 9 8 8 8 7 7 6 6 6 5 5 5 4 4 4 5 5 5 6 7 9 10 11 11 12 12 13 14 14 14 14 14
10 9 9 9 9 9 9 8 8 8 8 8 8 8 8 7 6 6 5 5 4 4 4 3 3 3 3 4 5 6 8 10 11 11 12 12 12 13 14 14 14 14
10 10 9 9 9 9 9 8 8 8 8 8 8 8 7 7 7 6 5 5 4 4 4 3 2 2 3 4 5 6 8 10 11 11 12 12 11 12 13 14 14 14
10 10 10 9 9 9 9 9 8 8 8 8 7 7 7 7 7 6 5 5 4 4 3 3 2 2 3 4 6 6 7 9 10 10 11 11 11 12 12 13 13 14
10 10 10 9 9 9 9 9 8 8 8 7 7 7 7 7 6 6 5 5 4 4 3 3 2 2 3 4 6 7 7 8 8 9 10 10 11 11 12 13 13 14
10 10 10 9 9 9 9 9 8 8 8 7 7 7 7 6 6 6 5 4 4 3 3 3 2 3 3 3 5 6 7 7 7 8 9 9 10 11 11 12 13 13
10 10 9 9 9 9 8 8 8 8 8 7 7 7 7 6 6 6 5 4 4 3 3 3 3 3 3 3 4 5 6 6 6 6 7 8 8 9 9 10 11 12
9 9 9 9 9 8 8 8 8 8 8 8 7 7 7 6 6 6 5 4 4 4 3 3 3 3 3 3 3 4 5 5 5 5 5 6 7 7 7 8 8 10
9 9 9 9 8 8 8 8 8 8 8 8 7 7 7 6 6 6 5 5 4 4 3 3 2 3 3 3 3 3 3 3 4 4 4 4 4 5 6 6 6 7
9 9 9 9 8 8 8 8 7 7 7 8 7 7 7 6 6 6 5 5 4 4 3 3 3 3 3 3 3 3 3 2 2 2 3 3 3 3 4 5 5 5
9 9 9 9 8 8 8 8 7 7 7 7 7 7 7 6 6 6 5 5 5 4 4 3 3 3 3 3 3 3 3 2 2 2 2 2 2 2 3 3 4 4
9 9 9 9 8 8 8 8 7 7 7 7 7 7 6 6 6 6 5 5 5 4 4 4 3 3 3 3 3 3 3 2 2 2 2 2 2 2 2 3 3 4
9 9 9 9 8 8 8 8 7 7 7 7 7 6 6 6 6 6 5 5 5 4 4 4 3 3 3 3 3 3 3 3 3 2 2 2 2 2 2 2 3 3

ECMWFNIL_925_temp_072.txt.gz
Temp
12 12 12 11 11 11 11 11 10 11 11 11 11 11 11 12 12 12 13 13 13 13 14 14 14 14 14 14 14 14 14 14 14 14 14 15 15 14 14 14 14 14
11 11 11 11 11 11 11 10 10 11 10 10 10 10 11 11 11 12 12 12 13 13 13 13 14 14 13 13 13 13 13 14 14 14 14 14 14 14 14 14 14 14
11 11 11 11 11 10 10 10 11 11 11 11 11 11 10 10 11 11 11 11 11 12 12 13 13 13 13 13 13 13 13 13 13 13 14 14 14 14 14 14 14 14
11 11 10 10 10 10 9 10 10 10 10 10 10 10 10 10 10 10 10 9 10 11 11 12 12 12 13 13 13 13 13 13 14 14 14 14 14 14 14 14 14 14
11 10 10 10 10 9 9 9 9 9 9 9 9 9 9 9 9 9 9 9 9 10 11 11 11 11 12 12 12 12 13 13 13 14 14 14 14 14 14 14 14 14
10 10 10 9 9 9 9 8 8 8 8 8 8 8 8 8 8 8 9 8 8 9 10 10 11 11 11 11 11 12 12 12 13 13 14 14 14 14 14 14 14 14
10 9 9 9 9 9 8 8 8 8 8 8 8 8 8 8 7 7 8 7 8 9 9 10 10 10 10 11 11 11 11 12 12 13 13 13 14 14 14 14 14 14
9 9 9 9 9 9 8 8 8 8 7 7 7 7 7 7 7 6 7 7 7 8 8 8 8 9 9 10 10 11 11 12 12 12 12 13 13 14 14 14 14 14
9 9 9 9 9 9 8 8 8 8 7 7 7 6 6 6 6 5 6 6 6 6 7 6 6 6 8 9 9 10 11 12 12 12 12 12 12 13 13 14 14 14
9 9 9 9 8 9 8 8 8 8 7 7 6 6 6 5 5 5 5 5 5 5 5 5 4 4 5 7 8 8 10 11 11 12 12 12 12 12 13 13 13 14
9 9 9 8 8 8 8 8 8 8 7 7 6 6 5 5 5 5 5 4 4 4 4 3 3 3 4 5 6 7 8 9 10 11 11 12 12 12 13 13 13 13
9 8 8 8 8 8 8 8 8 7 7 7 6 6 5 5 5 4 4 4 4 3 3 3 3 3 3 3 4 6 7 8 8 9 10 11 11 12 12 13 13 13
9 8 8 8 8 8 8 8 7 7 7 7 6 6 5 5 5 4 4 3 3 3 3 3 3 3 3 3 4 5 5 6 7 8 9 10 11 12 12 12 13 13
9 8 8 8 8 8 7 7 7 7 7 6 6 6 5 5 5 4 4 3 3 3 3 3 3 3 3 4 4 4 5 6 6 7 8 9 10 11 11 12 12 13
8 8 8 8 8 8 7 7 7 6 6 6 6 6 5 5 5 4 4 4 3 3 3 3 3 3 3 3 3 3 4 5 6 7 8 9 9 10 10 11 12 12
8 8 8 8 8 7 7 7 6 6 6 6 6 5 5 5 4 4 4 4 3 3 3 3 2 3 4 4 4 3 4 5 6 6 7 8 8 8 8 9 10 11
8 8 8 8 8 7 7 7 6 6 6 6 6 5 5 5 4 4 4 4 3 3 3 2 2 3 4 4 5 4 4 4 4 5 5 6 6 6 6 7 8 9
8 8 8 8 8 7 7 7 6 6 6 6 6 6 5 5 4 4 4 4 3 3 3 3 2 3 3 4 4 4 4 3 3 4 4 4 4 4 5 5 5 7
8 8 8 7 7 7 7 7 7 6 6 6 6 6 5 5 5 4 4 4 3 3 3 3 3 3 3 4 4 4 4 3 3 3 3 3 3 3 4 4 4 5
8 8 7 7 7 7 7 7 7 6 6 6 6 6 5 5 5 4 4 4 4 3 3 3 3 3 3 3 4 4 4 3 2 2 2 3 3 3 3 3 3 3
8 8 7 7 7 7 7 7 6 6 6 6 6 5 5 5 5 4 4 4 4 3 3 3 3 3 3 3 4 4 4 3 3 2 2 2 3 3 3 3 3 3
8 8 7 7 7 7 7 6 6 6 6 6 6 5 5 5 4 4 4 4 3 3 3 3 3 3 3 3 3 4 3 3 3 2 2 2 2 2 3 2 2 2
8 8 7 7 7 7 6 6 6 6 6 6 5 5 5 5 4 4 4 4 3 3 3 3 2 3 3 3 3 3 3 2 2 2 2 2 2 2 2 2 2 2
8 8 7 7 7 7 6 6 6 6 5 5 5 5 5 4 4 4 4 3 3 3 3 2 2 2 3 3 3 3 3 2 1 1 1 1 2 2 2 2 2 2
8 8 8 7 7 7 6 6 6 6 5 5 5 5 5 4 4 4 3 3 3 3 2 2 2 2 3 3 3 3 3 2 1 1 1 1 1 2 2 2 2 3
8 8 8 7 7 7 6 6 6 5 5 5 5 5 4 4 4 3 3 3 3 3 2 2 2 2 3 3 3 3 2 2 2 1 0 1 1 1 1 1 2 2

ECMWFNIL_925_temp_075.txt.gz
Temp
11 11 10 10 10 10 9 9 9 9 9 9 9 10 10 10 10 10 10 11 11 11 12 12 12 12 12 12 12 12 12 13 13 13 13 13 13 13 14 14 14 14
10 10 10 10 9 9 9 9 9 9 9 9 9 9 9 9 9 9 9 10 10 11 11 11 11 11 11 12 12 12 12 12 12 13 13 13 13 14 14 14 14 14
10 9 9 9 8 8 8 8 8 8 8 8 8 8 8 8 9 8 8 9 10 10 11 11 11 11 11 11 12 12 12 12 12 12 12 13 13 14 14 14 14 14
9 9 9 8 8 8 8 8 8 8 8 8 7 7 8 8 8 8 8 9 9 10 10 10 11 11 11 11 12 12 12 12 12 12 12 12 13 13 13 13 14 14
9 9 8 8 8 8 8 8 7 7 7 7 7 7 7 7 7 7 8 8 9 9 10 10 10 10 10 11 11 12 12 13 13 12 12 12 13 13 13 13 13 14
9 9 8 8 8 8 8 8 7 7 7 7 7 7 7 7 7 7 7 7 7 8 8 9 9 9 10 10 11 11 11 12 12 12 12 12 13 13 13 13 13 13
9 8 8 8 8 7 7 7 7 7 7 7 7 7 7 6 6 6 5 5 6 6 6 6 7 7 8 8 9 10 10 10 10 10 10 11 11 12 12 12 12 13
8 8 8 8 8 7 7 7 7 7 7 7 7 7 7 6 5 5 5 4 4 4 5 5 5 5 5 6 6 7 8 8 7 7 7 8 9 10 11 11 11 11
8 8 8 8 8 7 7 7 7 7 7 7 7 7 6 6 5 4 4 4 4 5 5 5 5 4 4 4 3 4 4 5 5 6 6 7 8 8 9 9 10 10
8 8 8 8 7 7 7 7 6 6 6 6 6 6 6 5 5 4 4 4 4 4 4 4 4 4 4 4 3 3 3 4 5 6 6 7 7 8 8 9 9 10
8 8 8 7 7 7 7 6 6 6 6 5 5 5 5 4 4 4 4 4 3 3 3 3 3 3 3 4 3 3 4 5 5 6 6 7 7 8 8 9 9 10
8 7 7 7 7 7 6 6 6 6 5 5 5 5 4 4 4 4 3 3 3 3 3 3 3 3 3 4 4 4 5 5 5 5 5 6 7 7 7 7 8 8
7 7 7 6 6 6 6 6 6 5 5 5 5 5 4 4 4 4 3 3 3 3 3 3 3 3 3 4 4 3 3 4 4 5 5 5 6 6 7 6 6 7
7 7 7 6 6 6 6 6 5 5 5 5 5 5 4 4 4 3 3 3 3 3 3 3 3 3 3 3 4 3 3 3 3 4 4 4 5 6 6 5 5 6
7 7 7 6 6 6 6 6 5 5 5 5 5 4 4 4 4 3 3 3 3 3 3 2 2 3 3 3 3 3 3 2 3 3 3 3 4 4 5 5 4 5
7 7 7 6 6 6 6 5 5 5 5 5 4 4 4 4 4 3 3 3 3 3 3 2 2 2 3 4 3 3 3 3 2 3 3 3 3 3 3 4 4 4
7 7 7 6 6 6 6 5 5 5 5 5 4 4 4 4 3 3 3 3 3 3 2 2 2 2 3 4 4 4 3 3 2 3 3 3 3 3 3 3 3 3
7 7 7 6 6 6 6 5 5 5 5 5 4 4 4 4 3 3 3 3 3 2 2 2 2 2 3 3 4 4 4 3 2 2 2 2 2 2 2 3 3 3
7 7 7 6 6 6 6 5 5 5 5 4 4 4 4 3 3 3 3 3 2 2 2 2 2 2 3 3 4 4 4 3 3 2 2 2 2 2 2 2 2 2
7 6 6 6 6 6 6 5 5 5 5 4 4 4 4 3 3 3 2 2 2 2 2 2 2 2 3 3 3 4 4 4 3 2 1 1 2 2 2 2 2 2
6 6 6 6 6 6 5 5 5 5 4 4 4 4 3 3 3 2 2 2 2 2 2 2 2 2 2 3 3 4 4 4 3 2 1 1 1 1 1 1 1 1
6 6 6 6 6 5 5 5 5 5 5 4 4 4 3 3 3 2 2 2 2 2 2 2 2 2 2 3 3 3 4 3 3 2 1 1 1 1 1 1 1 1
7 6 6 6 6 5 5 5 5 5 4 4 4 4 3 3 3 2 2 2 2 2 2 2 2 2 2 3 3 3 3 3 2 2 1 1 1 1 1 1 1 1
7 6 6 6 6 5 5 5 5 5 4 4 4 4 3 3 3 2 2 2 2 2 2 2 2 2 3 3 3 3 3 2 2 1 0 0 0 0 1 1 1 1
7 7 6 6 6 6 5 5 5 5 4 4 4 4 3 3 3 3 2 2 2 2 2 2 2 2 3 3 3 3 2 2 2 1 0 0 -0 0 0 1 0 1
7 7 6 6 6 6 5 5 5 5 5 4 4 4 4 3 3 2 2 2 2 2 2 2 2 2 3 3 3 3 3 2 2 1 0 0 -0 -0 -0 -0 -0 0